Date String (YYYY-MM-DD hh:mm:ss) UTC,Instrument flags,Ambient pressure (hPa),Sample flow (lpm),Bypass flow (lpm),Sample temperature (°C),Ambient temperature (°C),ASC tube jacket temperature (°C),LED temperature (°C),Box temperature (°C),Sample RH (%),Span deviation,Mass concentration (μg/m³),Mass concentration (μg/m³),Mass concentration (μg/m³)
DateTimeUTC,F1_M11,P_M11,Q1_M11,Q2_M11,T1_M11,T2_M11,T3_M11,T4_M11,T5_M11,U1_M11,ZSPAN_M11,X0_M11,X2_M11,X1_M11
2022-09-06 02:00:00,,0827.1,5.01,0.00,29.3,26.7,00.0,38.0,31.0,17.2,0000.0,0020.24,0007.67,0006.45
2022-09-06 02:01:00,,0827.1,5.02,0.00,29.3,27.1,00.0,38.0,31.1,17.1,0000.0,0020.33,0007.69,0006.43
2022-09-06 02:02:00,,0827.1,5.00,0.00,29.3,27.4,00.0,38.0,31.2,17.2,0000.0,0019.36,0007.68,0006.42
2022-09-06 02:03:00,,0827.1,5.01,0.00,29.4,27.7,00.0,38.0,31.3,17.2,0000.0,0018.46,0007.74,0006.42
2022-09-06 02:04:00,,0827.2,4.98,0.00,29.4,28.0,00.0,38.0,31.3,17.1,0000.0,0017.28,0007.72,0006.42
2022-09-06 02:05:00,,0827.2,5.00,0.00,29.4,28.2,00.0,38.1,31.4,17.2,0000.0,0017.20,0007.69,0006.42
2022-09-06 02:06:00,,0827.2,5.01,0.00,29.5,28.4,00.0,38.1,31.5,17.1,0000.0,0017.10,0007.77,0006.42
2022-09-06 02:07:00,,0827.2,4.99,0.00,29.5,28.5,00.0,38.1,31.5,17.0,0000.0,0017.25,0007.78,0006.42
2022-09-06 02:08:00,,0827.2,5.00,0.00,29.6,27.9,00.0,38.1,31.5,17.0,0000.0,0017.47,0007.78,0006.42
2022-09-06 02:09:00,,0827.2,5.01,0.00,29.5,26.6,00.0,38.1,31.3,17.1,0000.0,0017.24,0007.76,0006.43
2022-09-06 02:10:00,,0827.2,4.99,0.00,29.4,26.3,00.0,38.1,31.3,17.2,0000.0,0017.68,0007.77,0006.45
2022-09-06 02:11:00,,0827.2,5.00,0.00,29.4,26.5,00.0,38.1,31.1,17.2,0000.0,0017.86,0007.75,0006.46
2022-09-06 02:12:00,,0827.2,5.01,0.00,29.3,26.9,00.0,38.0,31.1,17.3,0000.0,0017.08,0007.76,0006.48
2022-09-06 02:13:00,,0827.2,4.99,0.00,29.4,27.2,00.0,38.0,31.1,17.3,0000.0,0016.58,0007.75,0006.49
2022-09-06 02:14:00,,0827.2,5.00,0.00,29.4,27.5,00.0,38.0,31.2,17.3,0000.0,0016.10,0007.68,0006.49
2022-09-06 02:15:00,,0827.3,5.00,0.00,29.4,27.8,00.0,38.0,31.3,17.2,0000.0,0015.97,0007.67,0006.49
2022-09-06 02:16:00,,0827.3,5.00,0.00,29.4,28.0,00.0,38.1,31.3,17.2,0000.0,0015.83,0007.63,0006.50
2022-09-06 02:17:00,,0827.2,4.99,0.00,29.5,28.2,00.0,38.1,31.4,17.2,0000.0,0016.06,0007.63,0006.50
2022-09-06 02:18:00,,0827.4,4.99,0.00,29.5,28.4,00.0,38.1,31.5,17.1,0000.0,0016.13,0007.62,0006.49
2022-09-06 02:19:00,,0827.2,5.00,0.00,29.5,28.0,00.0,38.1,31.5,17.1,0000.0,0015.42,0007.64,0006.49
2022-09-06 02:20:00,,0827.3,4.99,0.00,29.5,26.7,00.0,38.1,31.3,17.1,0000.0,0015.82,0007.57,0006.46
2022-09-06 02:21:00,,0827.3,5.00,0.00,29.4,26.3,00.0,38.1,31.2,17.1,0000.0,0016.04,0007.55,0006.42
2022-09-06 02:22:00,,0827.3,5.01,0.00,29.4,26.5,00.0,38.0,31.2,17.2,0000.0,0017.14,0007.59,0006.39
2022-09-06 02:23:00,,0827.4,4.99,0.00,29.3,26.8,00.0,38.0,31.0,17.3,0000.0,0017.60,0007.54,0006.36
2022-09-06 02:24:00,,0827.4,5.01,0.00,29.3,27.1,00.0,38.0,31.1,17.3,0000.0,0018.20,0007.51,0006.34
2022-09-06 02:25:00,,0827.4,4.99,0.00,29.3,27.4,00.0,38.0,31.2,17.2,0000.0,0018.60,0007.52,0006.32
2022-09-06 02:26:00,,0827.4,5.01,0.00,29.4,27.7,00.0,38.0,31.2,17.2,0000.0,0018.94,0007.51,0006.29
2022-09-06 02:27:00,,0827.4,5.01,0.00,29.4,27.9,00.0,38.0,31.3,17.2,0000.0,0019.41,0007.52,0006.27
2022-09-06 02:28:00,,0827.4,4.98,0.00,29.4,28.1,00.0,38.1,31.4,17.1,0000.0,0018.99,0007.52,0006.26
2022-09-06 02:29:00,,0827.4,5.01,0.00,29.5,28.3,00.0,38.1,31.4,17.1,0000.0,0018.86,0007.50,0006.23
2022-09-06 02:30:00,,0827.4,4.99,0.00,29.5,28.5,00.0,38.1,31.5,17.1,0000.0,0018.66,0007.46,0006.20
2022-09-06 02:31:00,,0827.4,5.01,0.00,29.6,28.4,00.0,38.1,31.5,17.1,0000.0,0018.83,0007.44,0006.18
2022-09-06 02:32:00,,0827.4,5.00,0.00,29.5,27.1,00.0,38.1,31.3,17.1,0000.0,0019.91,0007.43,0006.18
2022-09-06 02:33:00,,0827.4,5.00,0.00,29.5,26.2,00.0,38.1,31.2,17.1,0000.0,0020.17,0007.38,0006.18
2022-09-06 02:34:00,,0827.4,4.99,0.00,29.4,26.4,00.0,38.1,31.2,17.2,0000.0,0020.53,0007.40,0006.18
2022-09-06 02:35:00,,0827.4,5.00,0.00,29.4,26.6,00.0,38.0,31.1,17.2,0000.0,0020.31,0007.40,0006.18
2022-09-06 02:36:00,,0827.4,5.02,0.00,29.3,27.0,00.0,38.0,31.1,17.3,0000.0,0020.41,0007.42,0006.17
2022-09-06 02:37:00,,0827.4,4.99,0.00,29.3,27.3,00.0,38.0,31.2,17.2,0000.0,0020.90,0007.43,0006.17
2022-09-06 02:38:00,,0827.4,5.01,0.00,29.4,27.6,00.0,38.0,31.2,17.2,0000.0,0020.70,0007.45,0006.16
2022-09-06 02:39:00,,0827.4,5.01,0.00,29.4,27.9,00.0,38.0,31.3,17.2,0000.0,0020.78,0007.44,0006.15
2022-09-06 02:40:00,,0827.5,5.01,0.00,29.4,28.1,00.0,38.1,31.3,17.2,0000.0,0021.65,0007.38,0006.14
2022-09-06 02:41:00,,0827.5,4.99,0.00,29.5,28.3,00.0,38.1,31.4,17.2,0000.0,0021.91,0007.35,0006.14
2022-09-06 02:42:00,,0827.5,5.01,0.00,29.5,28.5,00.0,38.1,31.5,17.1,0000.0,0021.45,0007.37,0006.15
2022-09-06 02:43:00,,0827.5,4.99,0.00,29.5,28.6,00.0,38.1,31.5,17.0,0000.0,0019.72,0007.35,0006.15
2022-09-06 02:44:00,,0827.4,5.00,0.00,29.6,28.2,00.0,38.2,31.5,17.0,0000.0,0018.24,0007.35,0006.15
2022-09-06 02:45:00,,0827.5,5.00,0.00,29.5,26.8,00.0,38.2,31.3,17.0,0000.0,0018.08,0007.41,0006.17
2022-09-06 02:46:00,,0827.5,5.00,0.00,29.5,26.2,00.0,38.1,31.3,17.0,0000.0,0018.10,0007.46,0006.19
2022-09-06 02:47:00,,0827.5,5.00,0.00,29.4,26.4,00.0,38.1,31.2,17.1,0000.0,0018.51,0007.45,0006.19
2022-09-06 02:48:00,,0827.5,5.00,0.00,29.4,26.7,00.0,38.0,31.1,17.1,0000.0,0018.80,0007.46,0006.20
2022-09-06 02:49:00,,0827.5,5.00,0.00,29.4,27.1,00.0,38.0,31.2,17.1,0000.0,0020.24,0007.39,0006.21
2022-09-06 02:50:00,,0827.6,5.00,0.00,29.4,27.4,00.0,38.0,31.2,17.1,0000.0,0019.44,0007.35,0006.21
2022-09-06 02:51:00,,0827.5,5.01,0.00,29.4,27.7,00.0,38.0,31.2,17.1,0000.0,0018.43,0007.38,0006.23
2022-09-06 02:52:00,,0827.5,5.00,0.00,29.4,27.9,00.0,38.1,31.3,17.1,0000.0,0018.28,0007.45,0006.26
2022-09-06 02:53:00,,0827.6,4.99,0.00,29.4,28.1,00.0,38.1,31.4,17.0,0000.0,0018.23,0007.47,0006.29
2022-09-06 02:54:00,,0827.5,5.00,0.00,29.5,28.3,00.0,38.1,31.4,17.0,0000.0,0018.09,0007.47,0006.31
2022-09-06 02:55:00,,0827.5,4.98,0.00,29.5,28.5,00.0,38.1,31.5,17.0,0000.0,0018.09,0007.46,0006.34
2022-09-06 02:56:00,,0827.5,5.01,0.00,29.6,28.6,00.0,38.2,31.5,16.9,0000.0,0018.45,0007.47,0006.36
2022-09-06 02:57:00,,0827.5,5.00,0.00,29.6,27.9,00.0,38.2,31.5,16.9,0000.0,0018.19,0007.51,0006.38
2022-09-06 02:58:00,,0827.5,5.01,0.00,29.5,26.5,00.0,38.2,31.2,17.0,0000.0,0017.64,0007.52,0006.41
2022-09-06 02:59:00,,0827.5,4.99,0.00,29.4,26.1,00.0,38.1,31.2,17.1,0000.0,0017.22,0007.52,0006.44
